Vancouver, British Columbia

5:21 AM PDT on June 29, 2017 (GMT -0700)
Vancouver International Airport

Weather History for CYVR - October, 2013

Change the Weather History Date:

Tuesday, October 29, 2013

  Actual Average Record
Temperature  
Mean Temperature 44 °F -  
Max Temperature 55 °F 48 °F 62 °F (2014)
Min Temperature 33 °F 37 °F 33 °F (2013)
Degree Days  
Heating Degree Days 21    
Moisture  
Dew Point 34 °F    
Average Humidity 72    
Maximum Humidity 87    
Minimum Humidity 44    
Precipitation  
Precipitation 0.00 in 0.22 in - ()
Sea Level Pressure  
Sea Level Pressure 30.00 in    
Wind  
Wind Speed 5 mph ()    
Max Wind Speed 8 mph    
Max Gust Speed -    
Visibility 16.6 miles    
Events      
Averages and records for this station are not official NWS values.
T = Trace of Precipitation, MM = Missing Value Source: Averaged Metar Reports

Daily Weather History Graph

Daily Weather History Graph

Search for Another Location

Airport or City:

Trip Planner

Search our weather history database for the weather conditions in past years. The results will help you decide how hot, cold, wet, or windy it might be!

Date:

Astronomy

Oct. 29, 2013 Rise Set
Actual Time 7:56 AM PDT 5:55 PM PDT
Civil Twilight 7:23 AM PDT 6:28 PM PDT
Nautical Twilight 6:45 AM PDT 7:06 PM PDT
Astronomical Twilight 6:08 AM PDT 7:43 PM PDT
Moon 2:26 AM PDT 3:35 PM PDT
Length of Visible Light 11h 05m
Length of Day
9h 59m
Waning Crescent, 24% of the Moon is Illuminated
Oct 29
Waning Crescent
Nov 3
New
Nov 9
First Quarter
Nov 17
Full
Nov 25
Last Quarter

Hourly Weather History & Observations

Time (PDT) Temp. Windchill Dew Point Humidity Pressure Visibility Wind Dir Wind Speed Gust Speed Precip Events Conditions
12:00 AM 39.2 °F 33.6 °F 33.8 °F 81% 29.98 in 15.0 mi NW 8.1 mph - N/A   Clear
1:00 AM 41.0 °F - 33.8 °F 76% 29.98 in 15.0 mi Variable 2.3 mph - N/A   Clear
2:00 AM 37.4 °F 32.8 °F 33.8 °F 87% 29.98 in 15.0 mi SE 5.8 mph - N/A   Clear
2:31 AM 35.6 °F 31.7 °F 32.0 °F 87% 29.98 in 15.0 mi NNE 4.6 mph - N/A   Clear
3:00 AM 37.4 °F - 33.8 °F 87% 29.99 in 15.0 mi North 2.3 mph - N/A   Clear
3:19 AM 35.6 °F 32.8 °F 32.0 °F 87% 29.98 in 15.0 mi North 3.5 mph - N/A   Clear
4:00 AM 35.6 °F - 32.0 °F 87% 29.98 in 15.0 mi Calm Calm - N/A   Clear
5:00 AM 35 °F - 31 °F 78% 29.98 in 15 mi ESE 8.1 mph - -  
5:00 AM 35.6 °F 29.2 °F 30.2 °F 81% 29.98 in 15.0 mi ESE 8.1 mph - N/A   Clear
6:00 AM 35.6 °F 30.7 °F 30.2 °F 81% 29.99 in 15.0 mi East 5.8 mph - N/A   Clear
7:00 AM 37.4 °F 34.9 °F 33.8 °F 87% 30.00 in 15.0 mi ENE 3.5 mph - N/A   Clear
7:03 AM 35.6 °F 32.8 °F 30.2 °F 81% 30.00 in 15.0 mi NNE 3.5 mph - N/A   Clear
8:00 AM 35.6 °F 31.7 °F 32.0 °F 87% 30.01 in 30.0 mi East 4.6 mph - N/A   Clear
9:00 AM 39.2 °F 35.0 °F 33.8 °F 81% 30.02 in 30.0 mi East 5.8 mph - N/A   Clear
10:00 AM 46.4 °F 43.5 °F 35.6 °F 66% 30.03 in 30.0 mi East 5.8 mph - N/A   Clear
11:00 AM 49 °F - 34 °F 44% 30.04 in 28 mi ESE 5.8 mph - -   Clear
11:00 AM 48.2 °F - 33.8 °F 58% 30.03 in 30.0 mi ESE 5.8 mph - N/A   Partly Cloudy
12:00 PM 50.0 °F - 33.8 °F 54% 30.04 in 30.0 mi SE 5.8 mph - N/A   Partly Cloudy
1:00 PM 53.6 °F - 33.8 °F 47% 30.02 in 30.0 mi ESE 6.9 mph - N/A   Partly Cloudy
2:00 PM 55.4 °F - 35.6 °F 47% 30.01 in 30.0 mi SE 6.9 mph - N/A   Partly Cloudy
3:00 PM 55.4 °F - 33.8 °F 44% 30.00 in 30.0 mi ESE 4.6 mph - N/A   Partly Cloudy
4:00 PM 53.6 °F - 35.6 °F 51% 29.99 in 30.0 mi East 8.1 mph - N/A   Partly Cloudy
5:00 PM 53 °F - - % 30.00 in 28 mi Calm Calm - -   Clear
5:00 PM 53.6 °F - - N/A% 29.99 in 30.0 mi East 8.1 mph - N/A   Partly Cloudy
6:00 PM 48.2 °F - 37.4 °F 66% 29.99 in 30.0 mi SE 4.6 mph - N/A   Partly Cloudy
7:00 PM 46.4 °F 42.9 °F 37.4 °F 71% 30.01 in 20.0 mi ESE 6.9 mph - N/A   Partly Cloudy
8:00 PM 42.8 °F 41.1 °F 37.4 °F 81% 30.01 in 20.0 mi NE 3.5 mph - N/A   Partly Cloudy
9:00 PM 42.8 °F 39.3 °F 37.4 °F 81% 30.01 in 20.0 mi East 5.8 mph - N/A   Partly Cloudy
10:00 PM 44.6 °F 41.4 °F 37.4 °F 76% 30.02 in 20.0 mi NE 5.8 mph - N/A   Mostly Cloudy
11:00 PM 44 °F - 36 °F 66% 30.03 in 19 mi ENE 4.6 mph - -   Partly Cloudy
11:00 PM 44.6 °F 43.1 °F 37.4 °F 76% 30.03 in 20.0 mi ENE 3.5 mph - N/A   Mostly Cloudy